{"data":{"norad_id":65384,"intl_designator":"2025-191F","name":"STARLINK-35012","alt_names":[],"object_type":"PAYLOAD","status":"ACTIVE","operator":null,"country":"US","launch_date":"2025-08-30","launch_site_code":"AFWTR","launch_vehicle":null,"mission":null,"orbit_class":"UNKNOWN","rcs_meters":null,"size_class":null,"mass_kg":null,"dimensions":null,"purposes":["comms"],"wikipedia_slug":null,"has_3d_model":false,"image_url":null,"decayed_at":null,"tle_current":{"epoch":"2026-05-25T02:12:14.861088Z","epoch_age_seconds":61014,"freshness":"FRESH","line1":"1 65384U 25191F   26145.09183867  .00003172  00000+0  22373-3 0  9996","line2":"2 65384  97.4516  16.4240 0002302  84.3238 275.8251 15.05656378 41766","mean_motion":15.05656378,"eccentricity":0.0002302,"inclination_deg":97.4516,"raan_deg":16.424,"arg_perigee_deg":84.3238,"mean_anomaly_deg":275.8251,"bstar":0.00022373,"rev_number":4176,"period_min":95.639351783093,"perigee_km":547.89685012403,"apogee_km":551.08633032697,"semimajor_km":6927.6285902255,"source":"CELESTRAK","updated_at":"2026-05-25T13:38:20.772678Z"}}}